Location: Boiro
(42.6475°N, 8.8834°W)
Time: 23:31:03
(UTC+01:00)

Tiros 1 - Pass Details

Date: 14 December 2021
Orbit: 629 x 664 km, 48.4° (Epoch: 18 January)

Event Time Altitude Azimuth Distance (km) Brightness Sun altitude
Rises 17:13:25 0° 255° (WSW) 2,908 11.9 6.5°
Reaches altitude 10° 17:15:46 10° 259° (W) 2,003 11.0 6.1°
Maximum altitude 17:20:19 62° 340° (NNW) 713 7.4 5.5°
Drops below altitude 10° 17:24:55 10° 62° (ENE) 2,018 9.1 4.8°
Sets 17:27:17 0° 65° (ENE) 2,932 9.9 4.5°
